FLOCK 2E'-5

Last updated on June 28, 2018, 12:15 a.m. UTC

1 41567U 98067JR  18178.40169972  .11398691  12446-4  92239-3 0  9993
2 41567  51.6189 248.8124 0007910 305.1771  54.8513 16.38988334118767

Satellite is not in orbit.